Location: Maiden
(35.5760°N, 81.2120°W)
Time: 03:36:00
(UTC-04:00)

Vanguard 2 - Pass Details

Date: 06 August 2020
Orbit: 553 x 2937 km, 32.9° (Epoch: 20 September)

Event Time Altitude Azimuth Distance (km) Brightness Sun altitude
Rises 00:57:37 0° 261° (W) 6,146 12.2 -37.3°
Reaches altitude 10° 01:02:12 10° 261° (W) 4,812 11.5 -37.4°
Enters shadow 01:10:07 40° 254° (WSW) 2,465 9.9 -37.6°
Maximum altitude 01:14:46 76° 179° (S) 1,550 - -37.7°
Drops below altitude 10° 01:22:03 10° 94° (E) 2,905 - -37.8°
Sets 01:24:12 0° 93° (E) 3,633 - -37.8°
